{"data":{"norad_id":63019,"epoch":"2026-05-25T01:07:23.533824Z","epoch_age_seconds":74098,"freshness":"FRESH","line1":"1 63019U 25032Q   26145.04680016  .00012850  00000+0  47583-3 0  9999","line2":"2 63019  43.0010 265.1933 0001771 278.0964  81.9686 15.27567428 72295","mean_motion":15.27567428,"eccentricity":0.0001771,"inclination_deg":43.001,"raan_deg":265.1933,"arg_perigee_deg":278.0964,"mean_anomaly_deg":81.9686,"bstar":0.00047583,"rev_number":7229,"period_min":94.267524536403,"perigee_km":481.87161866399,"apogee_km":484.30186411319,"semimajor_km":6861.2237413886,"source":"CELESTRAK","updated_at":"2026-05-25T13:38:19.838001Z"}}